Cozumel, Mexico

12:06 PM EST on September 26, 2017 (GMT -0500)
Cozumel

Weather History for MMCZ - January, 2012

Change the Weather History Date:

Sunday, January 15, 2012

  Actual Average Record
Temperature  
Mean Temperature 70 °F -  
Max Temperature 73 °F 80 °F 87 °F (1998)
Min Temperature 66 °F 69 °F 60 °F (2015)
Cooling Degree Days 4    
Growing Degree Days 20 (Base 50)    
Moisture  
Dew Point 62 °F    
Average Humidity 73    
Maximum Humidity 88    
Minimum Humidity 65    
Precipitation  
Precipitation 0.00 in - - ()
Sea Level Pressure  
Sea Level Pressure 30.23 in    
Wind  
Wind Speed 11 mph ()    
Max Wind Speed 18 mph    
Max Gust Speed 24 mph    
Visibility 7.0 miles    
Events      
Averages and records for this station are not official NWS values.
T = Trace of Precipitation, MM = Missing Value Source: Averaged Metar Reports

Daily Weather History Graph

Daily Weather History Graph

Search for Another Location

Airport or City:

Trip Planner

Search our weather history database for the weather conditions in past years. The results will help you decide how hot, cold, wet, or windy it might be!

Date:

Astronomy

Jan. 15, 2012 Rise Set
Actual Time 6:26 AM CST 5:27 PM CST
Civil Twilight 6:02 AM CST 5:51 PM CST
Nautical Twilight 5:35 AM CST 6:18 PM CST
Astronomical Twilight 5:08 AM CST 6:45 PM CST
Moon 11:49 PM CST (1/15) 10:45 AM CST (1/15)
Length of Visible Light 11h 48m
Length of Day
11h 01m
Waning Gibbous, 57% of the Moon is Illuminated
Jan 15
Waning Gibbous
Jan 16
Last Quarter
Jan 23
New
Jan 30
First Quarter
Feb 7
Full

Hourly Weather History & Observations

Time (CST) Temp. Dew Point Humidity Pressure Visibility Wind Dir Wind Speed Gust Speed Precip Events Conditions
12:42 AM 69.8 °F 62.6 °F 78% 30.22 in 7.0 mi ENE 13.8 mph - N/A   Overcast
1:47 AM 69.8 °F 62.6 °F 78% 30.20 in 7.0 mi ENE 15.0 mph - N/A   Overcast
2:46 AM 69.8 °F 62.6 °F 78% 30.23 in 7.0 mi ENE 5.8 mph 17.3 mph N/A   Overcast
3:52 AM 69.8 °F 62.6 °F 78% 30.20 in 7.0 mi ENE 9.2 mph - N/A   Overcast
4:44 AM 69.8 °F 62.6 °F 78% 30.20 in 7.0 mi ENE 6.9 mph - N/A   Mostly Cloudy
5:50 AM 69.8 °F 62.6 °F 78% 30.19 in 7.0 mi East 6.9 mph - N/A   Mostly Cloudy
6:45 AM 66.2 °F 62.6 °F 88% 30.20 in 7.0 mi East 5.8 mph - N/A   Mostly Cloudy
7:41 AM 68.0 °F 60.8 °F 78% 30.26 in 7.0 mi NE 16.1 mph - N/A   Mostly Cloudy
8:40 AM 69.8 °F 60.8 °F 73% 30.31 in 7.0 mi ENE 15.0 mph - N/A   Mostly Cloudy
9:40 AM 71.6 °F 60.8 °F 69% 30.29 in 7.0 mi ENE 17.3 mph - N/A   Mostly Cloudy
10:40 AM 73.4 °F 60.8 °F 65% 30.28 in 7.0 mi ENE 17.3 mph - N/A   Mostly Cloudy
11:40 AM 73.4 °F 60.8 °F 65% 30.23 in 7.0 mi ENE 10.4 mph 21.9 mph N/A   Scattered Clouds
12:40 PM 73.4 °F 60.8 °F 65% 30.24 in 7.0 mi ENE 18.4 mph - N/A   Scattered Clouds
1:40 PM 73.4 °F 60.8 °F 65% 30.21 in 7.0 mi NE 17.3 mph - N/A   Mostly Cloudy
2:51 PM 73.4 °F 62.6 °F 69% 30.23 in 7.0 mi East 13.8 mph - N/A   Mostly Cloudy
3:49 PM 73.4 °F 62.6 °F 69% 30.20 in 7.0 mi ENE 16.1 mph - N/A   Mostly Cloudy
4:47 PM 71.6 °F 62.6 °F 73% 30.20 in 7.0 mi NE 9.2 mph - N/A   Mostly Cloudy
5:46 PM 71.6 °F 62.6 °F 73% 30.17 in 7.0 mi NE 13.8 mph - N/A   Mostly Cloudy
6:44 PM 71.6 °F 62.6 °F 73% 30.21 in 7.0 mi ENE 12.7 mph - N/A   Mostly Cloudy
8:02 PM 71.6 °F 62.6 °F 73% 30.23 in 7.0 mi ENE 11.5 mph 24.2 mph N/A   Mostly Cloudy
8:47 PM 71.6 °F 60.8 °F 69% 30.28 in 7.0 mi ENE 13.8 mph - N/A   Mostly Cloudy
9:44 PM 71.6 °F 60.8 °F 69% 30.25 in 7.0 mi East 16.1 mph - N/A   Mostly Cloudy
10:42 PM 69.8 °F 60.8 °F 73% 30.25 in 7.0 mi East 11.5 mph - N/A   Mostly Cloudy
11:41 PM 71.6 °F 62.6 °F 73% 30.21 in 7.0 mi East 9.2 mph - N/A   Mostly Cloudy